Year,Month,Day,Hour,Minute,Value (Times are PST for temperature in C)
2018,08,15,00,00,19.70
2018,08,15,00,01,19.70
2018,08,15,00,02,19.70
2018,08,15,00,03,19.70
2018,08,15,00,04,19.70
2018,08,15,00,05,19.70
2018,08,15,00,06,19.70
2018,08,15,00,07,19.70
2018,08,15,00,08,19.70
2018,08,15,00,09,19.70
2018,08,15,00,10,19.70
2018,08,15,00,11,19.60
2018,08,15,00,12,19.60
2018,08,15,00,13,19.60
2018,08,15,00,14,19.60
2018,08,15,00,15,19.60
2018,08,15,00,16,19.60
2018,08,15,00,17,19.60
2018,08,15,00,18,19.60
2018,08,15,00,19,19.60
2018,08,15,00,20,19.50
2018,08,15,00,21,19.50
2018,08,15,00,22,19.50
2018,08,15,00,23,19.40
2018,08,15,00,24,19.40
2018,08,15,00,25,19.40
2018,08,15,00,26,19.40
2018,08,15,00,27,19.30
2018,08,15,00,28,19.30
2018,08,15,00,29,19.30
2018,08,15,00,30,19.30
2018,08,15,00,31,19.30
2018,08,15,00,32,19.30
2018,08,15,00,33,19.30
2018,08,15,00,34,19.30
2018,08,15,00,35,19.30
2018,08,15,00,36,19.30
2018,08,15,00,37,19.30
2018,08,15,00,38,19.30
2018,08,15,00,39,19.30
2018,08,15,00,40,19.30
2018,08,15,00,41,19.20
2018,08,15,00,42,19.20
2018,08,15,00,43,19.20
2018,08,15,00,44,19.20
2018,08,15,00,45,19.10
2018,08,15,00,46,19.10
2018,08,15,00,47,19.10
2018,08,15,00,48,19.10
2018,08,15,00,49,19.10
2018,08,15,00,50,19.00
2018,08,15,00,51,19.00
2018,08,15,00,52,19.00
2018,08,15,00,53,18.90
2018,08,15,00,54,18.90
2018,08,15,00,55,18.80
2018,08,15,00,56,18.80
2018,08,15,00,57,18.70
2018,08,15,00,58,18.70
2018,08,15,00,59,18.70
2018,08,15,01,00,18.60
2018,08,15,01,01,18.60
2018,08,15,01,02,18.60
2018,08,15,01,03,18.60
2018,08,15,01,04,18.60
2018,08,15,01,05,18.60
2018,08,15,01,06,18.60
2018,08,15,01,07,18.50
2018,08,15,01,08,18.50
2018,08,15,01,09,18.50
2018,08,15,01,10,18.40
2018,08,15,01,11,18.40
2018,08,15,01,12,18.40
2018,08,15,01,13,18.40
2018,08,15,01,14,18.40
2018,08,15,01,15,18.30
2018,08,15,01,16,18.30
2018,08,15,01,17,18.30
2018,08,15,01,18,18.30
2018,08,15,01,19,18.30
2018,08,15,01,20,18.30
2018,08,15,01,21,18.30
2018,08,15,01,22,18.20
2018,08,15,01,23,18.20
2018,08,15,01,24,18.20
2018,08,15,01,25,18.20
2018,08,15,01,26,18.20
2018,08,15,01,27,18.20
2018,08,15,01,28,18.20
2018,08,15,01,29,18.10
2018,08,15,01,30,18.10
2018,08,15,01,31,18.00
2018,08,15,01,32,18.00
2018,08,15,01,33,17.90
2018,08,15,01,34,17.90
2018,08,15,01,35,17.80
2018,08,15,01,36,17.80
2018,08,15,01,37,17.70
2018,08,15,01,38,17.70
2018,08,15,01,39,17.70
2018,08,15,01,40,17.70
2018,08,15,01,41,17.70
2018,08,15,01,42,17.60
2018,08,15,01,43,17.60
2018,08,15,01,44,17.60
2018,08,15,01,45,17.60
2018,08,15,01,46,17.60
2018,08,15,01,47,17.60
2018,08,15,01,48,17.60
2018,08,15,01,49,17.50
2018,08,15,01,50,17.50
2018,08,15,01,51,17.50
2018,08,15,01,52,17.50
2018,08,15,01,53,17.40
2018,08,15,01,54,17.40
2018,08,15,01,55,17.40
2018,08,15,01,56,17.40
2018,08,15,01,57,17.40
2018,08,15,01,58,17.30
2018,08,15,01,59,17.30
2018,08,15,02,00,17.30
2018,08,15,02,01,17.30
2018,08,15,02,02,17.30
2018,08,15,02,03,17.30
2018,08,15,02,04,17.30
2018,08,15,02,05,17.30
2018,08,15,02,06,17.20
2018,08,15,02,07,17.20
2018,08,15,02,08,17.20
2018,08,15,02,09,17.20
2018,08,15,02,10,17.20
2018,08,15,02,11,17.10
2018,08,15,02,12,17.10
2018,08,15,02,13,17.10
2018,08,15,02,14,17.10
2018,08,15,02,15,17.10
2018,08,15,02,16,17.10
2018,08,15,02,17,17.10
2018,08,15,02,18,17.00
2018,08,15,02,19,17.00
2018,08,15,02,20,17.00
2018,08,15,02,21,17.00
2018,08,15,02,22,17.00
2018,08,15,02,23,16.90
2018,08,15,02,24,16.90
2018,08,15,02,25,16.90
2018,08,15,02,26,16.90
2018,08,15,02,27,16.80
2018,08,15,02,28,16.80
2018,08,15,02,29,16.80
2018,08,15,02,30,16.70
2018,08,15,02,31,16.70
2018,08,15,02,32,16.70
2018,08,15,02,33,16.60
2018,08,15,02,34,16.60
2018,08,15,02,35,16.60
2018,08,15,02,36,16.60
2018,08,15,02,37,16.60
2018,08,15,02,38,16.60
2018,08,15,02,39,16.60
2018,08,15,02,40,16.60
2018,08,15,02,41,16.50
2018,08,15,02,42,16.50
2018,08,15,02,43,16.50
2018,08,15,02,44,16.40
2018,08,15,02,45,16.40
2018,08,15,02,46,16.40
2018,08,15,02,47,16.40
2018,08,15,02,48,16.40
2018,08,15,02,49,16.40
2018,08,15,02,50,16.30
2018,08,15,02,51,16.30
2018,08,15,02,52,16.30
2018,08,15,02,53,16.20
2018,08,15,02,54,16.20
2018,08,15,02,55,16.20
2018,08,15,02,56,16.20
2018,08,15,02,57,16.10
2018,08,15,02,58,16.10
2018,08,15,02,59,16.10
2018,08,15,03,00,16.10
2018,08,15,03,01,16.10
2018,08,15,03,02,16.00
2018,08,15,03,03,16.00
2018,08,15,03,04,16.00
2018,08,15,03,05,15.90
2018,08,15,03,06,15.90
2018,08,15,03,07,15.90
2018,08,15,03,08,15.90
2018,08,15,03,09,15.90
2018,08,15,03,10,15.90
2018,08,15,03,11,15.80
2018,08,15,03,12,15.80
2018,08,15,03,13,15.80
2018,08,15,03,14,15.80
2018,08,15,03,15,15.80
2018,08,15,03,16,15.80
2018,08,15,03,17,15.80
2018,08,15,03,18,15.70
2018,08,15,03,19,15.70
2018,08,15,03,20,15.70
2018,08,15,03,21,15.70
2018,08,15,03,22,15.70
2018,08,15,03,23,15.70
2018,08,15,03,24,15.60
2018,08,15,03,25,15.60
2018,08,15,03,26,15.60
2018,08,15,03,27,15.60
2018,08,15,03,28,15.60
2018,08,15,03,29,15.60
2018,08,15,03,30,15.60
2018,08,15,03,31,15.60
2018,08,15,03,32,15.50
2018,08,15,03,33,15.50
2018,08,15,03,34,15.50
2018,08,15,03,35,15.40
2018,08,15,03,36,15.40
2018,08,15,03,37,15.40
2018,08,15,03,38,15.30
2018,08,15,03,39,15.30
2018,08,15,03,40,15.30
2018,08,15,03,41,15.30
2018,08,15,03,42,15.30
2018,08,15,03,43,15.20
2018,08,15,03,44,15.20
2018,08,15,03,45,15.20
2018,08,15,03,46,15.20
2018,08,15,03,47,15.20
2018,08,15,03,48,15.20
2018,08,15,03,49,15.10
2018,08,15,03,50,15.10
2018,08,15,03,51,15.10
2018,08,15,03,52,15.10
2018,08,15,03,53,15.10
2018,08,15,03,54,15.00
2018,08,15,03,55,15.00
2018,08,15,03,56,15.00
2018,08,15,03,57,14.90
2018,08,15,03,58,14.90
2018,08,15,03,59,14.90
2018,08,15,04,00,14.90
2018,08,15,04,01,14.80
2018,08,15,04,02,14.80
2018,08,15,04,03,14.80
2018,08,15,05,04,14.50
2018,08,15,05,05,14.50
2018,08,15,05,06,14.50
2018,08,15,05,07,14.50
2018,08,15,05,08,14.50
2018,08,15,05,09,14.50
2018,08,15,05,10,14.50
2018,08,15,05,11,14.50
2018,08,15,05,12,14.50
2018,08,15,05,13,14.60
2018,08,15,05,14,14.60
2018,08,15,05,15,14.60
2018,08,15,05,16,14.60
2018,08,15,05,17,14.60
2018,08,15,05,18,14.60
2018,08,15,05,19,14.60
2018,08,15,05,20,14.60
2018,08,15,05,21,14.70
2018,08,15,05,22,14.70
2018,08,15,05,23,14.70
2018,08,15,05,24,14.70
2018,08,15,05,25,14.80
2018,08,15,05,26,14.80
2018,08,15,05,27,14.80
2018,08,15,05,28,14.80
2018,08,15,05,29,14.80
2018,08,15,05,30,14.90
2018,08,15,05,31,14.90
2018,08,15,05,32,14.90
2018,08,15,05,33,14.90
2018,08,15,05,34,14.90
2018,08,15,05,35,15.00
2018,08,15,05,36,15.00
2018,08,15,05,37,15.00
2018,08,15,05,38,15.10
2018,08,15,05,39,15.10
2018,08,15,05,40,15.10
2018,08,15,05,41,15.10
2018,08,15,05,42,15.10
2018,08,15,05,43,15.20
2018,08,15,05,44,15.20
2018,08,15,05,45,15.20
2018,08,15,05,46,15.20
2018,08,15,05,47,15.20
2018,08,15,05,48,15.20
2018,08,15,05,49,15.20
2018,08,15,05,50,15.20
2018,08,15,05,51,15.20
2018,08,15,05,52,15.20
2018,08,15,05,53,15.20
2018,08,15,05,54,15.20
2018,08,15,05,55,15.20
2018,08,15,05,56,15.20
2018,08,15,05,57,15.20
2018,08,15,05,58,15.20
2018,08,15,05,59,15.20
2018,08,15,06,00,15.20
2018,08,15,06,01,15.20
2018,08,15,06,02,15.20
2018,08,15,06,03,15.20
2018,08,15,06,04,15.10
2018,08,15,06,05,15.10
2018,08,15,06,06,15.10
2018,08,15,06,07,15.10
2018,08,15,06,08,15.10
2018,08,15,06,09,15.10
2018,08,15,06,10,15.10
2018,08,15,06,11,15.10
2018,08,15,06,12,15.10
2018,08,15,06,13,15.20
2018,08,15,06,14,15.20
2018,08,15,06,15,15.20
2018,08,15,06,16,15.20
2018,08,15,06,17,15.20
2018,08,15,06,18,15.20
2018,08,15,06,19,15.20
2018,08,15,06,20,15.20
2018,08,15,06,21,15.20
2018,08,15,06,22,15.20
2018,08,15,06,23,15.20
2018,08,15,06,24,15.20
2018,08,15,06,25,15.20
2018,08,15,06,26,15.20
2018,08,15,06,27,15.20
2018,08,15,06,28,15.20
2018,08,15,06,29,15.20
2018,08,15,06,30,15.20
2018,08,15,06,31,15.20
2018,08,15,06,32,15.20
2018,08,15,06,33,15.20
2018,08,15,06,34,15.20
2018,08,15,06,35,15.20
2018,08,15,06,36,15.20
2018,08,15,06,37,15.20
2018,08,15,06,38,15.20
2018,08,15,06,39,15.10
2018,08,15,06,40,15.10
2018,08,15,06,41,15.10
2018,08,15,06,42,15.10
2018,08,15,06,43,15.10
2018,08,15,06,44,15.10
2018,08,15,06,45,15.10
2018,08,15,06,46,15.10
2018,08,15,06,47,15.10
2018,08,15,06,48,15.10
2018,08,15,06,49,15.10
2018,08,15,06,50,15.10
2018,08,15,06,51,15.10
2018,08,15,06,52,15.10
2018,08,15,06,53,15.20
2018,08,15,06,54,15.20
2018,08,15,06,55,15.20
2018,08,15,06,56,15.20
2018,08,15,06,57,15.20
2018,08,15,06,58,15.20
2018,08,15,06,59,15.20
2018,08,15,07,00,15.20
2018,08,15,07,01,15.30
2018,08,15,07,02,15.30
2018,08,15,07,03,15.30
2018,08,15,07,04,15.30
2018,08,15,07,05,15.30
2018,08,15,07,06,15.30
2018,08,15,07,07,15.30
2018,08,15,07,08,15.40
2018,08,15,07,09,15.40
2018,08,15,07,10,15.40
2018,08,15,07,11,15.50
2018,08,15,07,12,15.50
2018,08,15,07,13,15.50
2018,08,15,07,14,15.60
2018,08,15,07,15,15.60
2018,08,15,07,16,15.60
2018,08,15,07,17,15.60
2018,08,15,07,18,15.70
2018,08,15,07,19,15.70
2018,08,15,07,20,15.70
2018,08,15,07,21,15.70
2018,08,15,07,22,15.70
2018,08,15,07,23,15.70
2018,08,15,07,24,15.70
2018,08,15,07,25,15.80
2018,08,15,07,26,15.80
2018,08,15,07,27,15.80
2018,08,15,07,28,15.80
2018,08,15,07,29,15.80
2018,08,15,07,30,15.90
2018,08,15,07,31,15.90
2018,08,15,07,32,15.90
2018,08,15,07,33,15.90
2018,08,15,07,34,16.00
2018,08,15,07,35,16.00
2018,08,15,07,36,16.10
2018,08,15,07,37,16.10
2018,08,15,07,38,16.10
2018,08,15,07,39,16.20
2018,08,15,07,40,16.20
2018,08,15,07,41,16.20
2018,08,15,07,42,16.30
2018,08,15,07,43,16.30
2018,08,15,07,44,16.30
2018,08,15,07,45,16.40
2018,08,15,07,46,16.40
2018,08,15,07,47,16.50
2018,08,15,07,48,16.50
2018,08,15,07,49,16.50
2018,08,15,07,50,16.60
2018,08,15,07,51,16.60
2018,08,15,07,52,16.60
2018,08,15,07,53,16.70
2018,08,15,07,54,16.70
2018,08,15,07,55,16.80
2018,08,15,07,56,16.80
2018,08,15,07,57,16.80
2018,08,15,07,58,16.90
2018,08,15,07,59,16.90
2018,08,15,08,00,16.90
2018,08,15,08,01,17.00
2018,08,15,08,02,17.00
2018,08,15,08,03,17.00
2018,08,15,08,04,17.10
2018,08,15,08,05,17.10
2018,08,15,08,06,17.10
2018,08,15,08,07,17.20
2018,08,15,08,08,17.20
2018,08,15,08,09,17.20
2018,08,15,08,10,17.30
2018,08,15,08,11,17.30
2018,08,15,08,12,17.40
2018,08,15,08,13,17.40
2018,08,15,08,14,17.50
2018,08,15,08,15,17.50
2018,08,15,08,16,17.60
2018,08,15,08,17,17.60
2018,08,15,08,18,17.70
2018,08,15,08,19,17.70
2018,08,15,08,20,17.80
2018,08,15,08,21,17.90
2018,08,15,08,22,17.90
2018,08,15,08,23,18.00
2018,08,15,08,24,18.10
2018,08,15,08,25,18.10
2018,08,15,08,26,18.20
2018,08,15,08,27,18.20
2018,08,15,08,28,18.30
2018,08,15,08,29,18.40
2018,08,15,08,30,18.40
2018,08,15,08,31,18.50
2018,08,15,08,32,18.60
2018,08,15,08,33,18.70
2018,08,15,08,34,18.80
2018,08,15,08,35,18.80
2018,08,15,08,36,18.90
2018,08,15,08,37,19.00
2018,08,15,08,38,19.10
2018,08,15,08,39,19.10
2018,08,15,08,40,19.20
2018,08,15,08,41,19.20
2018,08,15,08,42,19.40
2018,08,15,08,43,19.50
2018,08,15,08,44,19.50
2018,08,15,08,45,19.60
2018,08,15,08,46,19.60
2018,08,15,08,47,19.70
2018,08,15,08,48,19.70
2018,08,15,08,49,19.80
2018,08,15,08,50,19.80
2018,08,15,08,51,19.80
2018,08,15,08,52,19.80
2018,08,15,08,53,19.90
2018,08,15,08,54,19.90
2018,08,15,08,55,19.90
2018,08,15,08,56,20.00
2018,08,15,08,57,20.00
2018,08,15,08,58,20.10
2018,08,15,08,59,20.10
2018,08,15,09,00,20.10
2018,08,15,09,01,20.20
2018,08,15,09,02,20.20
2018,08,15,09,03,20.20
2018,08,15,09,04,20.30
2018,08,15,09,05,20.30
2018,08,15,09,06,20.30
2018,08,15,09,07,20.30
2018,08,15,09,08,20.30
2018,08,15,09,09,20.40
2018,08,15,09,10,20.40
2018,08,15,09,11,20.50
2018,08,15,09,12,20.50
2018,08,15,09,13,20.50
2018,08,15,09,14,20.50
2018,08,15,09,15,20.60
2018,08,15,09,16,20.60
2018,08,15,09,17,20.60
2018,08,15,09,18,20.60
2018,08,15,09,19,20.60
2018,08,15,09,20,20.60
2018,08,15,09,21,20.60
2018,08,15,09,22,20.70
2018,08,15,09,23,20.70
2018,08,15,09,24,20.70
2018,08,15,09,25,20.80
2018,08,15,09,26,20.80
2018,08,15,09,27,20.80
2018,08,15,09,28,20.90
2018,08,15,09,29,20.90
2018,08,15,09,30,21.00
2018,08,15,09,31,21.10
2018,08,15,09,32,21.10
2018,08,15,09,33,21.20
2018,08,15,09,34,21.30
2018,08,15,09,35,21.40
2018,08,15,09,36,21.50
2018,08,15,09,37,21.60
2018,08,15,09,38,21.60
2018,08,15,09,39,21.70
2018,08,15,09,40,21.70
2018,08,15,09,41,21.70
2018,08,15,09,42,21.70
2018,08,15,09,43,21.70
2018,08,15,09,44,21.70
2018,08,15,09,45,21.70
2018,08,15,09,46,21.70
2018,08,15,09,47,21.60
2018,08,15,09,48,21.60
2018,08,15,09,49,21.60
2018,08,15,09,50,21.60
2018,08,15,09,51,21.60
2018,08,15,09,52,21.60
2018,08,15,09,53,21.60
2018,08,15,09,54,21.50
2018,08,15,09,55,21.60
2018,08,15,09,56,21.60
2018,08,15,09,57,21.60
2018,08,15,09,58,21.70
2018,08,15,09,59,21.70
2018,08,15,10,00,21.80
2018,08,15,10,01,21.80
2018,08,15,10,02,21.80
2018,08,15,10,03,21.80
2018,08,15,10,04,21.80
2018,08,15,10,05,21.80
2018,08,15,10,06,21.80
2018,08,15,10,07,21.80
2018,08,15,10,08,21.80
2018,08,15,10,09,21.80
2018,08,15,10,10,21.80
2018,08,15,10,11,21.70
2018,08,15,10,12,21.70
2018,08,15,10,13,21.70
2018,08,15,10,14,21.70
2018,08,15,10,15,21.70
2018,08,15,10,16,21.70
2018,08,15,10,17,21.70
2018,08,15,10,18,21.70
2018,08,15,10,19,21.70
2018,08,15,10,20,21.70
2018,08,15,10,21,21.70
2018,08,15,10,22,21.80
2018,08,15,10,23,21.80
2018,08,15,10,24,21.90
2018,08,15,10,25,21.90
2018,08,15,10,26,21.90
2018,08,15,10,27,21.90
2018,08,15,10,28,21.90
2018,08,15,10,29,21.80
2018,08,15,10,30,21.70
2018,08,15,10,31,21.70
2018,08,15,10,32,21.60
2018,08,15,10,33,21.60
2018,08,15,10,34,21.70
2018,08,15,10,35,21.70
2018,08,15,10,36,21.80
2018,08,15,10,37,21.80
2018,08,15,10,38,21.90
2018,08,15,10,39,22.00
2018,08,15,10,40,22.00
2018,08,15,10,41,22.10
2018,08,15,10,42,22.20
2018,08,15,10,43,22.30
2018,08,15,10,44,22.40
2018,08,15,10,45,22.40
2018,08,15,10,46,22.40
2018,08,15,10,47,22.40
2018,08,15,10,48,22.40
2018,08,15,10,49,22.50
2018,08,15,10,50,22.50
2018,08,15,10,51,22.60
2018,08,15,10,52,22.60
2018,08,15,10,53,22.60
2018,08,15,10,54,22.60
2018,08,15,10,55,22.70
2018,08,15,10,56,22.70
2018,08,15,10,57,22.70
2018,08,15,10,58,22.80
2018,08,15,10,59,22.90
2018,08,15,11,00,22.90
2018,08,15,11,01,22.90
2018,08,15,11,02,23.00
2018,08,15,11,03,23.00
2018,08,15,11,04,23.00
2018,08,15,11,05,23.00
2018,08,15,11,06,23.00
2018,08,15,11,07,23.10
2018,08,15,11,08,23.10
2018,08,15,11,09,23.10
2018,08,15,11,10,23.20
2018,08,15,11,11,23.20
2018,08,15,11,12,23.30
2018,08,15,11,13,23.30
2018,08,15,11,14,23.30
2018,08,15,11,15,23.30
2018,08,15,11,16,23.20
2018,08,15,11,17,23.20
2018,08,15,11,18,23.10
2018,08,15,11,19,23.10
2018,08,15,11,20,23.20
2018,08,15,11,21,23.20
2018,08,15,11,22,23.30
2018,08,15,11,23,23.30
2018,08,15,11,24,23.40
2018,08,15,11,25,23.50
2018,08,15,11,26,23.50
2018,08,15,11,27,23.60
2018,08,15,11,28,23.70
2018,08,15,11,29,23.80
2018,08,15,11,30,23.90
2018,08,15,11,31,24.00
2018,08,15,11,32,24.10
2018,08,15,11,33,24.20
2018,08,15,11,34,24.30
2018,08,15,11,35,24.30
2018,08,15,11,36,24.40
2018,08,15,11,37,24.50
2018,08,15,11,38,24.60
2018,08,15,11,39,24.70
2018,08,15,11,40,24.80
2018,08,15,11,41,24.90
2018,08,15,11,42,24.90
2018,08,15,11,43,25.00
2018,08,15,11,44,25.10
2018,08,15,11,45,25.10
2018,08,15,11,46,25.20
2018,08,15,11,47,25.30
2018,08,15,11,48,25.40
2018,08,15,11,49,25.50
2018,08,15,11,50,25.60
2018,08,15,11,51,25.70
2018,08,15,11,52,25.70
2018,08,15,11,53,25.80
2018,08,15,11,54,25.80
2018,08,15,11,55,25.90
2018,08,15,11,56,26.00
2018,08,15,11,57,26.00
2018,08,15,11,58,26.10
2018,08,15,11,59,26.10
2018,08,15,12,00,26.10
2018,08,15,12,01,26.10
2018,08,15,12,02,26.10
2018,08,15,12,03,26.10
2018,08,15,12,04,26.10
2018,08,15,12,05,26.10
2018,08,15,12,06,26.10
2018,08,15,12,07,26.00
2018,08,15,12,08,25.90
2018,08,15,12,09,25.80
2018,08,15,12,10,25.70
2018,08,15,12,11,25.70
2018,08,15,12,12,25.60
2018,08,15,12,13,25.50
2018,08,15,12,14,25.40
2018,08,15,12,15,25.40
2018,08,15,12,16,25.30
2018,08,15,12,17,25.20
2018,08,15,12,18,25.20
2018,08,15,12,19,25.20
2018,08,15,12,20,25.20
2018,08,15,12,21,25.30
2018,08,15,12,22,25.30
2018,08,15,12,23,25.40
2018,08,15,12,24,25.40
2018,08,15,12,25,25.50
2018,08,15,12,26,25.50
2018,08,15,12,27,25.60
2018,08,15,12,28,25.60
2018,08,15,12,29,25.50
2018,08,15,12,30,25.50
2018,08,15,12,31,25.50
2018,08,15,12,32,25.50
2018,08,15,12,33,25.50
2018,08,15,12,34,25.60
2018,08,15,12,35,25.60
2018,08,15,12,36,25.70
2018,08,15,12,37,25.80
2018,08,15,12,38,25.90
2018,08,15,12,39,25.90
2018,08,15,12,40,25.90
2018,08,15,12,41,25.90
2018,08,15,12,42,25.90
2018,08,15,12,43,26.00
2018,08,15,12,44,26.00
2018,08,15,12,45,26.10
2018,08,15,12,46,26.20
2018,08,15,12,47,26.20
2018,08,15,12,48,26.30
2018,08,15,12,49,26.30
2018,08,15,12,50,26.30
2018,08,15,12,51,26.30
2018,08,15,12,52,26.20
2018,08,15,12,53,26.20
2018,08,15,12,54,26.20
2018,08,15,12,55,26.20
2018,08,15,12,56,26.30
2018,08,15,12,57,26.30
2018,08,15,12,58,26.30
2018,08,15,12,59,26.40
2018,08,15,13,00,26.40
2018,08,15,13,01,26.40
2018,08,15,13,02,26.40
2018,08,15,13,03,26.40
2018,08,15,13,04,26.50
2018,08,15,13,05,26.50
2018,08,15,13,06,26.60
2018,08,15,13,07,26.60
2018,08,15,13,08,26.60
2018,08,15,13,09,26.60
2018,08,15,13,10,26.60
2018,08,15,13,11,26.60
2018,08,15,13,12,26.50
2018,08,15,13,13,26.40
2018,08,15,13,14,26.40
2018,08,15,13,15,26.40
2018,08,15,13,16,26.50
2018,08,15,13,17,26.50
2018,08,15,13,18,26.60
2018,08,15,13,19,26.60
2018,08,15,13,20,26.60
2018,08,15,13,21,26.70
2018,08,15,13,22,26.70
2018,08,15,13,23,26.70
2018,08,15,13,24,26.70
2018,08,15,13,25,26.70
2018,08,15,13,26,26.70
2018,08,15,13,27,26.70
2018,08,15,13,28,26.70
2018,08,15,13,29,26.70
2018,08,15,13,30,26.70
2018,08,15,13,31,26.70
2018,08,15,13,32,26.70
2018,08,15,13,33,26.70
2018,08,15,13,34,26.60
2018,08,15,13,35,26.60
2018,08,15,13,36,26.50
2018,08,15,13,37,26.50
2018,08,15,13,38,26.50
2018,08,15,13,39,26.50
2018,08,15,13,40,26.40
2018,08,15,13,41,26.30
2018,08,15,13,42,26.20
2018,08,15,13,43,26.10
2018,08,15,13,44,26.10
2018,08,15,13,45,26.10
2018,08,15,13,46,26.10
2018,08,15,13,47,26.10
2018,08,15,13,48,26.10
2018,08,15,13,49,26.10
2018,08,15,13,50,26.10
2018,08,15,13,51,26.10
2018,08,15,13,52,26.10
2018,08,15,13,53,26.10
2018,08,15,13,54,26.00
2018,08,15,13,55,26.00
2018,08,15,13,56,25.90
2018,08,15,13,57,25.90
2018,08,15,13,58,25.80
2018,08,15,13,59,25.80
2018,08,15,14,00,25.80
2018,08,15,14,01,25.80
2018,08,15,14,02,25.80
2018,08,15,14,03,25.90
2018,08,15,14,04,25.90
2018,08,15,14,05,25.90
2018,08,15,14,06,25.90
2018,08,15,14,07,25.90
2018,08,15,14,08,25.90
2018,08,15,14,09,25.90
2018,08,15,14,10,25.90
2018,08,15,14,11,25.80
2018,08,15,14,12,25.80
2018,08,15,14,13,25.80
2018,08,15,14,14,25.80
2018,08,15,14,15,25.80
2018,08,15,14,16,25.70
2018,08,15,14,17,25.70
2018,08,15,14,18,25.70
2018,08,15,14,19,25.60
2018,08,15,14,20,25.60
2018,08,15,14,21,25.60
2018,08,15,14,22,25.60
2018,08,15,14,23,25.60
2018,08,15,14,24,25.60
2018,08,15,14,25,25.60
2018,08,15,14,26,25.60
2018,08,15,14,27,25.50
2018,08,15,14,28,25.50
2018,08,15,14,29,25.40
2018,08,15,14,30,25.40
2018,08,15,14,31,25.40
2018,08,15,14,32,25.40
2018,08,15,14,33,25.40
2018,08,15,14,34,25.40
2018,08,15,14,35,25.40
2018,08,15,14,36,25.50
2018,08,15,14,37,25.50
2018,08,15,14,38,25.50
2018,08,15,14,39,25.50
2018,08,15,14,40,25.50
2018,08,15,14,41,25.50
2018,08,15,14,42,25.50
2018,08,15,14,43,25.50
2018,08,15,14,44,25.60
2018,08,15,14,45,25.60
2018,08,15,14,46,25.70
2018,08,15,14,47,25.70
2018,08,15,14,48,25.80
2018,08,15,14,49,25.80
2018,08,15,14,50,25.80
2018,08,15,14,51,25.80
2018,08,15,14,52,25.80
2018,08,15,14,53,25.80
2018,08,15,14,54,25.80
2018,08,15,14,55,25.80
2018,08,15,14,56,25.80
2018,08,15,14,57,25.80
2018,08,15,14,58,25.80
2018,08,15,14,59,25.80
2018,08,15,15,00,25.80
2018,08,15,15,01,25.80
2018,08,15,15,02,25.80
2018,08,15,15,03,25.70
2018,08,15,15,04,25.70
2018,08,15,15,05,25.70
2018,08,15,15,06,25.70
2018,08,15,15,07,25.80
2018,08,15,15,08,25.80
2018,08,15,15,09,25.80
2018,08,15,15,10,25.80
2018,08,15,15,11,25.90
2018,08,15,15,12,25.90
2018,08,15,15,13,25.90
2018,08,15,15,14,25.90
2018,08,15,15,15,26.00
2018,08,15,15,16,26.00
2018,08,15,15,17,26.00
2018,08,15,15,18,26.00
2018,08,15,15,19,26.10
2018,08,15,15,20,26.10
2018,08,15,15,21,26.10
2018,08,15,15,22,26.10
2018,08,15,15,23,26.20
2018,08,15,15,24,26.20
2018,08,15,15,25,26.20
2018,08,15,15,26,26.20
2018,08,15,15,27,26.20
2018,08,15,15,28,26.20
2018,08,15,15,29,26.20
2018,08,15,15,30,26.20
2018,08,15,15,31,26.20
2018,08,15,15,32,26.20
2018,08,15,15,33,26.20
2018,08,15,15,34,26.20
2018,08,15,15,35,26.20
2018,08,15,15,36,26.20
2018,08,15,15,37,26.10
2018,08,15,15,38,26.10
2018,08,15,15,39,26.00
2018,08,15,15,40,25.90
2018,08,15,15,41,25.80
2018,08,15,15,42,25.70
2018,08,15,15,43,25.60
2018,08,15,15,44,25.50
2018,08,15,15,45,25.40
2018,08,15,15,46,25.40
2018,08,15,15,47,25.30
2018,08,15,15,48,25.20
2018,08,15,15,49,25.20
2018,08,15,15,50,25.10
2018,08,15,15,51,25.10
2018,08,15,15,52,25.10
2018,08,15,15,53,25.20
2018,08,15,15,54,25.20
2018,08,15,15,55,25.10
2018,08,15,15,56,25.10
2018,08,15,15,57,25.10
2018,08,15,15,58,25.10
2018,08,15,15,59,25.10
2018,08,15,16,00,25.10
2018,08,15,16,01,25.20
2018,08,15,16,02,25.20
2018,08,15,16,03,25.10
2018,08,15,16,04,25.10
2018,08,15,16,05,25.00
2018,08,15,16,06,25.00
2018,08,15,16,07,24.90
2018,08,15,16,08,24.90
2018,08,15,16,09,24.90
2018,08,15,16,10,24.90
2018,08,15,16,11,24.90
2018,08,15,16,12,24.90
2018,08,15,16,13,24.90
2018,08,15,16,14,25.00
2018,08,15,16,15,25.00
2018,08,15,16,16,25.00
2018,08,15,16,17,25.00
2018,08,15,16,18,25.10
2018,08,15,16,19,25.10
2018,08,15,16,20,25.10
2018,08,15,16,21,25.10
2018,08,15,16,22,25.10
2018,08,15,16,23,25.10
2018,08,15,16,24,25.10
2018,08,15,16,25,25.10
2018,08,15,16,26,25.10
2018,08,15,16,27,25.20
2018,08,15,16,28,25.20
2018,08,15,16,29,25.10
2018,08,15,16,30,25.10
2018,08,15,16,31,25.10
2018,08,15,16,32,25.10
2018,08,15,16,33,25.10
2018,08,15,16,34,25.10
2018,08,15,16,35,25.10
2018,08,15,16,36,25.10
2018,08,15,16,37,25.10
2018,08,15,16,38,25.10
2018,08,15,16,39,25.10
2018,08,15,16,40,25.10
2018,08,15,16,41,25.10
2018,08,15,16,42,25.10
2018,08,15,16,43,25.10
2018,08,15,16,44,25.10
2018,08,15,16,45,25.10
2018,08,15,16,46,25.10
2018,08,15,16,47,25.10
2018,08,15,16,48,25.00
2018,08,15,16,49,25.00
2018,08,15,16,50,25.00
2018,08,15,16,51,25.00
2018,08,15,16,52,25.00
2018,08,15,16,53,25.00
2018,08,15,16,54,24.90
2018,08,15,16,55,24.90
2018,08,15,16,56,24.90
2018,08,15,16,57,25.00
2018,08,15,16,58,25.00
2018,08,15,16,59,25.00
2018,08,15,17,00,25.00
2018,08,15,17,01,25.10
2018,08,15,17,02,25.10
2018,08,15,17,03,25.10
2018,08,15,17,04,25.10
2018,08,15,17,05,25.10
2018,08,15,17,06,25.10
2018,08,15,17,07,25.10
2018,08,15,17,08,25.10
2018,08,15,17,09,25.10
2018,08,15,17,10,25.20
2018,08,15,17,11,25.20
2018,08,15,17,12,25.20
2018,08,15,17,13,25.30
2018,08,15,17,14,25.30
2018,08,15,17,15,25.30
2018,08,15,17,16,25.40
2018,08,15,17,17,25.40
2018,08,15,17,18,25.30
2018,08,15,17,19,25.30
2018,08,15,17,20,25.30
2018,08,15,17,21,25.20
2018,08,15,17,22,25.20
2018,08,15,17,23,25.20
2018,08,15,17,24,25.30
2018,08,15,17,25,25.30
2018,08,15,17,26,25.30
2018,08,15,17,27,25.20
2018,08,15,17,28,25.20
2018,08,15,17,29,25.20
2018,08,15,17,30,25.20
2018,08,15,17,31,25.20
2018,08,15,17,32,25.10
2018,08,15,17,33,25.10
2018,08,15,17,34,25.10
2018,08,15,17,35,25.10
2018,08,15,17,36,25.00
2018,08,15,17,37,25.00
2018,08,15,17,38,25.00
2018,08,15,17,39,24.90
2018,08,15,17,40,24.90
2018,08,15,17,41,24.90
2018,08,15,17,42,24.90
2018,08,15,17,43,24.90
2018,08,15,17,44,24.90
2018,08,15,17,45,24.90
2018,08,15,17,46,24.90
2018,08,15,17,47,24.80
2018,08,15,17,48,24.80
2018,08,15,17,49,24.80
2018,08,15,17,50,24.80
2018,08,15,17,51,24.70
2018,08,15,17,52,24.70
2018,08,15,17,53,24.70
2018,08,15,17,54,24.70
2018,08,15,17,55,24.70
2018,08,15,17,56,24.70
2018,08,15,17,57,24.70
2018,08,15,17,58,24.60
2018,08,15,17,59,24.60
2018,08,15,18,00,24.60
2018,08,15,18,01,24.50
2018,08,15,18,02,24.50
2018,08,15,18,03,24.50
2018,08,15,18,04,24.40
2018,08,15,18,05,24.30
2018,08,15,18,06,24.30
2018,08,15,18,07,24.20
2018,08,15,18,08,24.20
2018,08,15,18,09,24.10
2018,08,15,18,10,24.10
2018,08,15,18,11,24.10
2018,08,15,18,12,24.10
2018,08,15,18,13,24.10
2018,08,15,18,14,24.10
2018,08,15,18,15,24.20
2018,08,15,18,16,24.20
2018,08,15,18,17,24.20
2018,08,15,18,18,24.20
2018,08,15,18,19,24.20